Torna al catalogo

WESTFORD NEEDLES

AttivoPO
NORAD 2365·DEBRIS·🇺🇸 United States

Lanciato May 9, 1963 da Vandenberg Space Force Base

Loading…

Prossimi Passaggi (prossime 24 ore)

TLE

AggiornatoSource: Space-Track

Epoca: Sep 14, 2026, 22:03 UTC

1 02365U 63014Q   26257.91914821 -.00000046  00000-0 -22372-1 0  9996
2 02365  87.3105  89.5935 0185073 108.0534 254.0580  8.67894505  4725

Traccia WESTFORD NEEDLES in tempo reale con AllMySat

Download on the App Store